Location: Miami, Florida
(25.6830°N, 80.1700°W)
Time: 07:58:11
(UTC-04:00)

ISS - Visible Passes

Search period start: 24 February 2018 00:00
Search period end: 06 March 2018 00:00
Orbit: 402 x 407 km, 51.6° (Epoch: 24 February)

Date Brightness Start Highest point End Pass type
(mag) Time Alt. Az. Time Alt. Az. Time Alt. Az.
25 Feb -3.9 06:46:55 15° SW 06:49:32 84° SE 06:52:49 10° NE visible
26 Feb -1.9 05:57:58 29° ESE 05:57:58 29° ESE 06:00:21 10° ENE visible
27 Feb -2.8 06:41:26 28° NW 06:41:34 28° NW 06:44:26 10° NNE visible
28 Feb -1.0 05:51:56 15° NE 05:51:56 15° NE 05:52:32 10° NE visible
